www.pogodaiklimat.ru

Погода и климат >> Архив погоды >> Россия >> Кемеровская область >> Барзас


ПОГОДА в Барзасе

  • Прогноз погоды в Барзасе
  • Монитор погоды в Барзасе

АРХИВ ПОГОДЫ в Барзасе

Время (UTC), дата Ветер
(напр.,м/с)
 
Видим.   Явления Облачность Т
(С)
Тd
(С)
f
(%)
Тe
(С)
Тes
(С)
Комфортность P
(гПа)
Po
(гПа)
Тmin
(С)
Tmax
(С)
R
(мм)
R24
(мм)
S
(см)
15 15.08 С 2 10 км 9 баллов +18.6 +13.7 73 +20 +20 1011.0 986.7
18 15.08 С 2 10 км 9 баллов +17.3 +13.8 80 +18 +18 1009.6 985.3
21 15.08 С 2 10 км 9 баллов +15.7 +13.7 88 +16 +16 1009.8 985.3
00 16.08 С 2 50 км 9/9 600 м
[Sc]
+15.2 +13.4 89 +15 +15 1008.2 983.8 +14.7
03 16.08 С 2 50 км 9 баллов +17.5 +13.6 78 +18 +19 1008.3 984.0
06 16.08 С 3 50 км 9 баллов +21.5 +14.6 65 +25 +26 комфорт 1007.9 984.0
09 16.08 ЮВ 4 50 км гроза без осадков 10 баллов +20.1 +15.5 75 +23 +23 комфорт 1009.4 985.3
12 16.08 штиль 0 50 км {гроза, ливн. осадки} 10/4 600 м
[Cb cap Ci sp]
+17.3 +15.9 91 +17 +18 1008.8 984.6 +22.6 3
15 16.08 ЮЗ 1 10 км 10 баллов +16.3 +15.5 95 +17 +17 1011.1 986.7
18 16.08 Ю 1 10 км в посл. час ливневой дождь 10/10 600 м
[Cb cap]
+15.3 +14.7 96 +16 +16 1011.2 986.7
21 16.08 штиль 0 4000 м дымка 10 баллов +14.0 +13.4 96 +14 +14 1011.4 986.7
00 17.08 штиль 0 500 м туман {ливн. осадки} 5/0
[Ci fib]
+13.4 +12.9 97 +13 +13 1011.6 986.9 +13.0 0.0
03 17.08 Ю 1 10 км 10 баллов +16.2 +15.2 94 +17 +17 1013.8 989.3
06 17.08 СЗ 1 50 км {туман} 9/9 600 м
[Cb cap]
+19.6 +15.9 79 +23 +24 комфорт 1013.5 989.3
09 17.08 Ю 2 50 км 6 баллов +23.2 +13.4 54 +26 +30 жарко 1013.2 989.3
12 17.08 З 1 50 км 3/3 600 м
[Cb cap]
+22.2 +14.5 62 +26 +26 душно 1012.1 988.2 +23.8
15 17.08 штиль 0 10 км 7 баллов +16.7 +15.2 91 +17 +17 1013.8 989.3
18 17.08 штиль 0 1000 м дымка 3/3 600 м
[Cb cap]
+13.7 +13.1 96 +13 +13 1014.1 989.3
21 17.08 штиль 0 500 м туман ясно +10.9 +10.4 97 +10 +10 1014.3 989.3
00 18.08 штиль 0 500 м туман 3/0
[Ci fib]
+10.0 +9.6 97 +9 +10 1014.1 989.0 +9.8
03 18.08 СВ 2 10 км 1 балл +19.3 +15.2 77 +21 +27 комфорт 1015.0 990.7
06 18.08 СВ 4 10 км 2 балла +23.7 +12.0 48 +25 +32 комфорт 1013.2 989.3
09 18.08 С 2 4000 м мгла 2 балла +24.2 +10.8 43 +25 +32 комфорт 1013.2 989.3
12 18.08 СВ 3 4000 м мгла 1/1 1000 м
[Cu hum]
+23.9 +10.0 41 +25 +26 комфорт 1012.6 988.7 +25.4
15 18.08 штиль 0 10 км 9 баллов +16.0 +12.0 77 +16 +16 1015.3 990.7
18 18.08 штиль 0 10 км 9 баллов +13.8 +12.7 93 +13 +13 1016.8 992.0
21 18.08 штиль 0 10 км 9 баллов +13.0 +12.1 94 +12 +12 1016.9 992.0
00 19.08 штиль 0 4000 м дымка 9/3 600 м
[Cb cap Ac lent]
+13.5 +12.6 94 +13 +13 1015.7 991.0 +13.0
03 19.08 Ю 2 4000 м мгла 6 баллов +18.7 +14.4 76 +20 +23 1016.4 992.0
06 19.08 Ю 3 4000 м мгла н/о +22.3 +14.9 63 +26 1016.1 992.0
09 19.08 В 1
{13}
4000 м гроза, ливневой дождь 10/10 600 м
[Cb calv]
+15.9 +15.1 95 +17 +17 1016.6 992.0
12 19.08 Ю 2 4000 м мгла {гроза} 10/10 600 м
[Cb cap]
+16.6 +15.8 95 +17 +17 1014.7 990.2 +22.8 12
15 19.08 Ю 1 4000 м мгла 10 баллов +15.8 +14.8 94 +16 +16 1016.6 992.0
18 19.08 С 2 4000 м слаб. ливневой дождь 10 баллов +14.9 +14.3 96 +15 +15 1015.4 990.7
21 19.08 С 2 4000 м мгла 10 баллов +13.8 +13.0 95 +13 +13 1015.5 990.7
00 20.08 С 2 20 км {ливн. осадки} 10/10 600 м
[Cb cap]
+13.4 +12.6 95 +13 +13 1014.8 990.0 +13.4 1
03 20.08 С 2 50 км 10 баллов +14.8 +12.8 88 +14 +14 1015.4 990.7
06 20.08 СВ 2 50 км 9 баллов +18.0 +9.3 57 +19 +20 1015.1 990.7
09 20.08 З 3 50 км 9 баллов +18.5 +10.1 58 +19 +20 1015.1 990.7
12 20.08 ЮЗ 2 50 км 8/8 600 м
[Cb cap]
+17.7 +9.7 59 +18 +18 1014.5 990.1 +19.4
15 20.08 Ю 1 10 км 1 балл +11.2 +9.6 90 +11 +11 1017.1 992.0
18 20.08 ЮЗ 1 10 км 2 балла +9.3 +8.7 96 +9 +9 1017.2 992.0
21 20.08 Ю 1 1000 м дымка 2 балла +9.0 +8.5 97 +8 +8 1015.9 990.7
00 21.08 штиль 0 2000 м в посл. час ливневой дождь {туман} 9/9 600 м
[Cb cap]
+9.7 +9.2 97 +9 +9 1013.8 988.7 +7.9 0.0
03 21.08 Ю 3 4000 м слаб. ливневой дождь 10 баллов +12.4 +11.1 92 +11 +11 1014.2 989.3
06 21.08 ЮВ 2 50 км 9 баллов +14.4 +11.2 81 +14 +15 1014.0 989.3
09 21.08 З 4 50 км 9 баллов +15.7 +9.1 65 +15 +15 1013.9 989.3
12 21.08 Ю 1 50 км {ливн. осадки} 5/3 600 м
[Cb cap Ac trans]
+15.1 +9.1 67 +16 +16 1012.4 987.8 +17.1
15 21.08 штиль 0 10 км 4 балла +11.7 +9.9 89 +11 +11 1014.3 989.3
18 21.08 штиль 0 10 км ясно +9.4 +8.8 96 +8 +8 1014.5 989.3
21 21.08 штиль 0 500 м туман ясно +5.5 +5.1 97 +4 +4 1013.5 988.0
00 22.08 штиль 0 500 м туман ясно +5.5 +5.1 97 +4 +5 1012.0 986.6 +5.3
03 22.08 СВ 1 50 км 2 балла +14.8 +10.8 77 +15 +21 1011.3 986.7
06 22.08 ЮВ 1 50 км 9 баллов +18.6 +8.3 51 +20 +21 1009.6 985.3
09 22.08 ЮВ 1 50 км 9 баллов +19.0 +8.6 51 +21 +22 комфорт 1009.5 985.3

 

Местоположение метеостанции Барзас (Кемеровская область, Россия): широта 55.70 долгота 86.27 высота над уровнем моря 209 м.

В архиве по умолчанию представлена погода в Барзасе за последнюю неделю. Архивные данные за месяц целиком и за предыдущие месяцы, начиная с января 2011 года, Вы можете получить, выбрав интересующий диапазон дат из раскрывающегося списка и нажав кнопку "Ввод!".


*Определитесь, кто Вы:
робот инопланетянин человек

Внимание! Время в таблицах - всемирное. Для получения местного времени необходимо прибавить поправку, которая равна 7 ч.

Смотрите также архив погоды в соседних городах и на ближайших метеорологических станциях:

Погода в Кемерово АМС (Кемеровская область, Россия) (34 км)
Погода в Кемерово (Кемеровская область, Россия) (50 км)
Погода в Яе (Кемеровская область, Россия) (57 км)
Погода в Тайге (Кемеровская область, Россия) (58 км)
Погода в Топках (Кемеровская область, Россия) (64 км)
Погода в Крапивино (Кемеровская область, Россия) (85 км)
Погода в Юрге (Кемеровская область, Россия) (93 км)
Погода в Промышленной (Кемеровская область, Россия) (98 км)
Погода в Мариинске (Кемеровская область, Россия) (103 км)
Погода в Центральном Руднике (Кемеровская область, Россия) (103 км)

Пояснения к столбцам:

Ветер - указаны скорость ветра в м/с - средняя за 10 мин, порывы в срок и между сроками (в фигурных скобках) и направление, откуда дует ветер: С - северный, СВ - северо-восточный, В - восточный, ЮВ - юго-восточный, Ю - южный, ЮЗ - юго-западный, З - западный, СЗ - северо-западный.
Видимость - горизонтальная дальность видимости в метрах или километрах. При видимости от 1 до 10 км при отсутствии осадков обычно наблюдается дымка, при ухудшении видимости до 1 км и менее - туман. В сухую погоду видимость может ухудшаться дымом, пылью или мглою.
Явления - указаны атмосферные явления, наблюдавшиеся в срок или в последний час перед сроком; фигурными скобками обозначены явления, наблюдавшиеся между сроками (за 1-3 часа до срока); квадратными скобками обозначены град или гололедные отложения с указанием их диаметра в мм.
Облачность - указаны через наклонную черту общая и нижняя облачность в баллах и высота нижней границы облаков в метрах; квадратными скобками обозначены формы облаков: Ci - перистые, Cs - перисто-слоистые, Cc - перисто-кучевые, Ac - высококучевые, As - высокослоистые, Sc - слоисто-кучевые, Ns - слоисто-дождевые, Cu - кучевые, Cb - кучево-дождевые. Подробнее классификацию облаков см. в Атласе облаков (PDF).
T - Температура воздуха - температура, измеренная на высоте 2 м над землей.
Td - Температура точки росы - температура, при понижении до которой содержащийся в воздухе водяной пар достигнет насыщения.
f - Относительная влажность воздуха - влажноcть воздуха, измеренная на высоте 2 м над землей.
Te - Эффективная температура - температура, которую ощущает одетый по сезону человек в тени. Характеристика душности погоды. При расчете учитывается влияние влажности воздуха и скорости ветра на теплоощущения человека.
Tes - Эффективная температура на солнце - температура, которую ощущает человек, с поправкой на солнечный нагрев. Характеристика знойности погоды. Зависит от высоты солнца над горизонтом, облачности и скорости ветра. Ночью, в пасмурную погоду, а также при ветре 12 м/с и более поправка равна нулю.
P - Атмосферное давление - приведенное к уровню моря атмосферное давление.
Po - Атмосферное давление - измеренное на уровне метеостанции атмосферное давление.
Tmin - Минимальная температура - минимум температуры воздуха на высоте 2 м над землей.
Tmax - Максимальная температура - максимум температуры воздуха на высоте 2 м над землей.
R - Количество осадков - Количество выпавших осадков за период времени, мм. При наведении курсора мыши на число - период времени, за который выпало указанное количество осадков.
R24 - Количество осадков - Количество выпавших осадков за 24 часа, мм.
S - Снежный покров - Высота снежного покрова, см. При наведении курсора мыши на число - состояние снежного покрова и степень покрытия местности в баллах.